LUCH 5A (37951 NORAD) Tracking and Keplerian Element Data

This shows tracking and keplerian element data for the satellite.

Feedback or suggestion? Click here.




ElementValue
Catalog37951
NameLUCH 5A
Epoch Orbit2419
Epoch Day198.87562466
Epoch Year2018
RAAN147.1603
Inclination1.9061
Eccentricity0.0002388
Argument of Perigee299.0905
Mean Anonmoly331.5429
Mean Motion1.00272518
Decay Rate-6.5E-07
L11 37951U 11074B 18198.87562466 -.00000065 00000-0 00000+0 0 9990
L22 37951 1.9061 147.1603 0002388 299.0905 331.5429 1.00272518 24190

Live tracking and technical data element details for LUCH 5A (NORAD 37951). LUCH 5A can be tracked NOW for your location showing map with azimuth and elevation plus other details from your city location.

Track the satellite on the map from your city or location and see movement details for azimuth, elevation, latitude, longitude, range, height, and movement on the map or in text.







IsCatalogInMostPopularTable: catalog: 37951, numindb: 36
Update: records affected: 1



GetName: 37951 LUCH 5A

Hit Count: updated at: Wed, 18 Jul 2018 20:19:12 GMT